Regional Weather Roundup
Issued by NWS

Home | Current Version | Previous Version | Graphics & Text | Print | Product List | Glossary On
Versions: 1 2 3 4 5 6 7 8 9 10 11 12 13 14 15 16 17 18 19 20 21 22 23 24 25 26 27 28 29 30 31 32 33 34 35 36 37 38 39 40 41 42 43 44 45 46 47 48 49 50
000
ASUS43 KMPX 302210
RWRMN
WEATHER ROUNDUP FOR MINNESOTA
NATIONAL WEATHER SERVICE TWIN CITIES/CHANHASSEN MN
500 PM CDT SUN APR 30 2017


NOTE: "FAIR" INDICATES FEW OR NO CLOUDS BELOW 12,000 FEET WITH NO
SIGNIFICANT WEATHER AND/OR OBSTRUCTIONS TO VISIBILITY. N/A MEANS
CURRENT SKY AND/OR WEATHER CONDITIONS ARE NOT AVAILABLE.

MNZ060>063-068>070-302300-
   Twin Cities Metro

CITY           SKY/WX    TMP DP  RH WIND       PRES   REMARKS
TWIN CITIES    CLOUDY    48  33  56 NE20G30   29.81F
ST PAUL        CLOUDY    47  35  63 NE15G24   29.83F
CRYSTAL        CLOUDY    47  31  53 NE15G28   29.82F
BLAINE         CLOUDY    48  34  57 NE18G24   29.84F
LAKEVILLE      CLOUDY    45  36  70 NE17G28   29.80F
EDEN PRAIRIE   CLOUDY    47  34  60 NE18G31   29.80F
SOUTH ST PAUL  CLOUDY    47  33  58 NE9G18    29.81F
LAKE ELMO      CLOUDY    46  34  61 NE14G20   29.83F
$$
MNZ001>005-007-008-013>017-022>024-027-028-302300-
   Northwest Minnesota

CITY           SKY/WX    TMP DP  RH WIND       PRES   REMARKS
BEMIDJI        MOSUNNY   56  21  25 E13       29.92F
HALLOCK        SUNNY     64  19  17 E6G16     29.94F
ROSEAU         SUNNY     59  27  29 E14G20    29.97F
WARROAD        SUNNY     55  28  35 NE10      29.99F
THIEF RVR FALL MOSUNNY   59  18  20 E10G21    29.94F
CROOKSTON      MOSUNNY   61  21  21 E10G18    29.93F
FOSSTON        PTSUNNY   63  19  19 E5        29.92F
DETROIT LAKES  PTSUNNY   55  21  26 E12G18    29.90F
MOORHEAD       MOSUNNY   61  16  17 E14G21    29.89F
PARK RAPIDS    CLOUDY    54  19  25 E14G22    29.90F
MAHNOMEN       FAIR      58  25  28 E10G18    29.90F
$$
MNZ006-009>011-018-025>026-302300-
   North Central Minnesota

CITY           SKY/WX    TMP DP  RH WIND       PRES   REMARKS
BAUDETTE       SUNNY     59  15  18 E16G22    29.97F
FLAG ISLAND    SUNNY     54  23  30 CALM      29.98F
INTL FALLS     MOSUNNY   56  22  26 E14G20    29.97F
WASKISH        MOSUNNY   61  25  25 E12G18    29.94F
BIG FORK       PTSUNNY   55  21  26 E10       29.95F
LONGVILLE      CLOUDY    52  21  30 E9G16     29.92F
GRAND RAPIDS   CLOUDY    52  21  29 E9        29.96F
CRANE LAKE     CLOUDY    55  18  22 CALM      30.01F
ORR            MOSUNNY   55  14  19 SE3       29.95F
COOK           MOSUNNY   54  21  28 NE7       29.98S
WALKER         FAIR      51  25  36 E9        29.92F
$$
MNZ012-019>021-037-302300-
   Northeast Minnesota

CITY           SKY/WX    TMP DP  RH WIND       PRES   REMARKS
DULUTH         CLOUDY    44  25  47 E24G33    29.97F
ELY            MOSUNNY   50  18  27 E10       29.99F
HIBBING        CLOUDY    50  15  24 E15G24    29.96F
EVELETH        CLOUDY    53   6  15 SE10      29.97F
DULUTH HARBOR  CLOUDY    39  36  87 NE21G26   30.00F
TWO HARBORS    CLOUDY    46  28  49 E17G25    29.99F
SILVER BAY     CLOUDY    43  28  56 NE13G23   30.01F
GRAND MARAIS     N/A     42  30  62 NE10      30.05F
G MARAIS ARPRT PTSUNNY   43  16  33 NE13      30.03F
$$
MNZ029>031-032-039>041-046>048-054>057-064-302300-
   West Central Minnesota

CITY           SKY/WX    TMP DP  RH WIND       PRES   REMARKS
FERGUS FALLS   CLOUDY    54  27  35 E9G17     29.87F
WHEATON        CLOUDY    54  21  28 NE15      29.87F
MORRIS         CLOUDY    52  28  40 E21G28    29.84F
ALEXANDRIA     CLOUDY    50  26  39 E21G28    29.86F
ELBOW LAKE     FAIR      51  28  40 E14G23    29.86F
WADENA         CLOUDY    52  25  35 E14G23    29.88F
GLENWOOD       CLOUDY    48  28  46 NE25G31   29.84F
APPLETON       LGT RAIN  46  36  66 NE14G23   29.83F
BENSON         LGT RAIN  48  27  43 E15G23    29.85F
ORTONVILLE     CLOUDY    48  30  49 E15       29.83F
MADISON        LGT RAIN  46  39  76 NE15      29.83F
WILLMAR        LGT RAIN  46  36  66 NE20G28   29.83F
$$
MNZ033>034-036-042>043-049>051-058-059-302300-
   Central Minnesota

CITY           SKY/WX    TMP DP  RH WIND       PRES   REMARKS
ST CLOUD       LGT RAIN  45  33  63 NE15G25   29.87F
SAUK CENTRE    CLOUDY    47  28  47 NE23G30   29.85F
PAYNESVILLE    RAIN      44  35  69 NE17G32   29.84F
AITKIN         CLOUDY    52  23  32 E9G18     29.92S
PINE RIVER     CLOUDY    52  28  40 E15G21    29.95F
BRAINERD       CLOUDY    49  24  37 NE15G23   29.91F
STAPLES        CLOUDY    52  21  30 NE10G16   29.89F
LONG PRAIRIE   CLOUDY    46  28  49 NE20G26   29.88F
LITTLE FALLS   CLOUDY    46  28  49 E13G21    29.89F
LITCHFIELD     LGT RAIN  46  36  66 NE21G29   29.83F
BUFFALO        LGT RAIN  46  33  60 N17G29    29.85F
MAPLE LAKE     CLOUDY    46  34  61 NE14G26   29.85F
HUTCHINSON     DRIZZLE   44  36  73 NE15G24   29.83S
$$
MNZ037-044-045-052-053-302300-
   East Central Minnesota

CITY           SKY/WX    TMP DP  RH WIND       PRES   REMARKS
PRINCETON      LGT RAIN  46  32  57 NE13G21   29.88F
MORA           CLOUDY    45  28  53 NE15G28   29.92S
CAMBRIDGE      DRIZZLE   48  34  57 NE12G21   29.86F
RUSH CITY      CLOUDY    47  30  52 NE15G21   29.89F
MOOSE LAKE     CLOUDY    43  27  52 NE12G21   29.93F
HINCKLEY       CLOUDY    46  28  49 NE10G23   29.92F
CLOQUET        PTSUNNY   45  19  36 E22G29    29.95F
MCGREGOR       CLOUDY    48  28  46 E16G24    29.94F
$$
MNZ071>073-080-081-089-090-097-098-302300-
   Southwest Minnesota

CITY           SKY/WX    TMP DP  RH WIND       PRES   REMARKS
MONTEVIDEO     DRIZZLE   45  37  76 E15       29.82F
GRANITE FALLS  CLOUDY    46  38  74 NE12G25   29.83F
CANBY          LGT RAIN  45  38  79 NE20G25   29.82F
MARSHALL       LGT RAIN  41  37  86 E21       29.79F
REDWOOD FALLS  CLOUDY    43  34  70 NE17G25   29.80F
OLIVIA         LGT RAIN  43  36  75 NE14      29.81F
PIPESTONE      RAIN      39  34  81 E22G33    29.70F
WINDOM         CLOUDY    39  37  93 NE22G28   29.73F
WORTHINGTON    LGT RAIN  38  37  97 NE29G40   29.67F
JACKSON        CLOUDY    37  37 100 NE24      29.70F
TRACY          LGT RAIN  41  39  93 NE18G28   29.77F
SLAYTON        CLOUDY    37  36  95 NE22G28   29.74F FOG
$$
MNZ065>067-074>077-082>085-091>093-302300-
   South Central Minnesota

CITY           SKY/WX    TMP DP  RH WIND       PRES   REMARKS
MANKATO        LGT RAIN  45  36  70 NE18G25   29.76F
NEW ULM        CLOUDY    43  36  75 NE17G26   29.78F
ST JAMES       CLOUDY    43  37  81 NE17G23   29.74F
FAIRMONT       CLOUDY    42  37  82 NE17      29.71F
GLENCOE        CLOUDY    45  37  76 NE12G18   29.80F
FARIBAULT      CLOUDY    45  36  70 NE15G24   29.78F
OWATONNA       CLOUDY    46  36  66 NE22      29.76F
WASECA         CLOUDY    43  36  75 NE17G26   29.76F
ALBERT LEA     CLOUDY    43  36  75 NE23G29   29.70F
$$
MNZ078>079-086>088-094>096-302300-
   Southeast Minnesota

CITY           SKY/WX    TMP DP  RH WIND       PRES   REMARKS
ROCHESTER      CLOUDY    43  37  79 NE23G30   29.76F
RED WING       CLOUDY    50  34  53 E13G18    29.78F
STANTON        CLOUDY    48  36  62 NE16G22   29.77F
DODGE CENTER   CLOUDY    45  36  70 NE25G32   29.74F
WINONA         CLOUDY    46  37  71 E17       29.80F
AUSTIN         CLOUDY    45  36  70 E16G26    29.73F
PRESTON        CLOUDY    41  36  82 E20G25    29.76S
$$
ABBREVIATIONS USED IN REMARKS
   TC - TEMPERATURES IN CELSIUS
  WCI - WIND CHILL INDEX
   HX - HEAT INDEX
  VSB - VISIBILITY
$$



USA.gov is the U.S. government's official web portal to all federal, state and local government web resources and services.